Wolke Sonne

Wetter Ammerndorf

Gehe zu: Roßtal

Tageswerte vom Donnerstag, 31.03.2022

Optionen

Tag:
Erweitert:

Alle Werte vom Donnerstag, 31.03.2022

Einen Moment bitte, die Daten werden aufbereitet...

UhrzeitTemperaturBoden 10cmBoden 20cmFeuchteLuftdruckNiederschlagEvapotranspirationWindWindböenWindrichtungSolarstrahlungUV-IndexSonne?Uhrzeit
Diagramm IconDiagramm IconDiagramm IconDiagramm IconDiagramm IconDiagramm IconDiagramm IconDiagramm IconDiagramm IconDiagramm IconDiagramm IconDiagramm IconDiagramm Icon
00:003,7 °C 7,2 °C 7,2 °C 92 % 1000,3 hPa 0,0 mm - 4,7 km/h 13,0 km/h NO 0,0 W/qm 0,0 nein 00:00
00:053,7 °C 7,2 °C 7,2 °C 92 % 1000,3 hPa 0,0 mm 0,0 mm 4,7 km/h 13,0 km/h NO 0,0 W/qm 0,0 nein 00:05
00:103,7 °C 7,2 °C 7,2 °C 92 % 1000,3 hPa 0,0 mm 0,0 mm 4,7 km/h 13,0 km/h N 0,0 W/qm 0,0 nein 00:10
00:153,7 °C 7,2 °C 7,2 °C 92 % 1000,3 hPa 0,0 mm - 4,7 km/h 11,2 km/h ONO 0,0 W/qm 0,0 nein 00:15
00:203,6 °C 7,2 °C 7,2 °C 92 % 1000,3 hPa 0,0 mm - 4,7 km/h 13,0 km/h NO 0,0 W/qm 0,0 nein 00:20
00:253,6 °C 7,2 °C 7,2 °C 92 % 1000,3 hPa 0,0 mm - 3,2 km/h 13,0 km/h NO 0,0 W/qm 0,0 nein 00:25
00:303,6 °C 7,2 °C 7,2 °C 92 % 1000,2 hPa 0,0 mm - 3,2 km/h 13,0 km/h ONO 0,0 W/qm 0,0 nein 00:30
00:353,6 °C 7,2 °C 7,2 °C 92 % 1000,1 hPa 0,0 mm - 4,7 km/h 11,2 km/h ONO 0,0 W/qm 0,0 nein 00:35
00:403,6 °C 7,2 °C 7,2 °C 92 % 1000,1 hPa 0,0 mm - 6,5 km/h 11,2 km/h N 0,0 W/qm 0,0 nein 00:40
00:453,6 °C 7,2 °C 7,2 °C 92 % 1000,1 hPa 0,0 mm - 6,5 km/h 11,2 km/h NO 0,0 W/qm 0,0 nein 00:45
00:503,6 °C 7,2 °C 7,2 °C 92 % 1000,0 hPa 0,0 mm - 4,7 km/h 14,4 km/h ONO 0,0 W/qm 0,0 nein 00:50
00:553,6 °C 7,2 °C 7,2 °C 92 % 999,9 hPa 0,0 mm - 4,7 km/h 14,4 km/h ONO 0,0 W/qm 0,0 nein 00:55
01:003,6 °C 7,2 °C 7,2 °C 92 % 999,8 hPa 0,0 mm - 4,7 km/h 14,4 km/h ONO 0,0 W/qm 0,0 nein 01:00
01:053,6 °C 7,2 °C 7,2 °C 92 % 999,9 hPa 0,0 mm 0,0 mm 4,7 km/h 11,2 km/h NO 0,0 W/qm 0,0 nein 01:05
01:103,5 °C 7,2 °C 7,2 °C 91 % 999,9 hPa 0,0 mm 0,0 mm 6,5 km/h 14,4 km/h NO 0,0 W/qm 0,0 nein 01:10
01:153,5 °C 7,2 °C 7,2 °C 91 % 999,8 hPa 0,0 mm - 4,7 km/h 16,2 km/h NO 0,0 W/qm 0,0 nein 01:15
01:203,4 °C 7,2 °C 7,2 °C 91 % 999,8 hPa 0,0 mm - 4,7 km/h 16,2 km/h N 0,0 W/qm 0,0 nein 01:20
01:253,4 °C 7,2 °C 7,2 °C 91 % 999,9 hPa 0,0 mm - 4,7 km/h 16,2 km/h NNW 0,0 W/qm 0,0 nein 01:25
01:303,4 °C 7,2 °C 7,2 °C 91 % 999,8 hPa 0,0 mm - 3,2 km/h 14,4 km/h ONO 0,0 W/qm 0,0 nein 01:30
01:353,4 °C 7,2 °C 7,2 °C 91 % 999,8 hPa 0,0 mm - 4,7 km/h 14,4 km/h ONO 0,0 W/qm 0,0 nein 01:35
01:403,4 °C 7,2 °C 7,2 °C 91 % 999,7 hPa 0,0 mm - 4,7 km/h 11,2 km/h ONO 0,0 W/qm 0,0 nein 01:40
01:453,3 °C 7,2 °C 7,2 °C 91 % 999,7 hPa 0,0 mm - 1,4 km/h 11,2 km/h ONO 0,0 W/qm 0,0 nein 01:45
01:503,3 °C 7,2 °C 7,2 °C 91 % 999,6 hPa 0,0 mm - 1,4 km/h 11,2 km/h O 0,0 W/qm 0,0 nein 01:50
01:553,3 °C 7,2 °C 7,2 °C 91 % 999,6 hPa 0,0 mm - 1,4 km/h 7,9 km/h NO 0,0 W/qm 0,0 nein 01:55
UhrzeitTemperaturBoden 10cmBoden 20cmFeuchteLuftdruckNiederschlagEvapotranspirationWindWindböenWindrichtungSolarstrahlungUV-IndexSonne?Uhrzeit
02:003,3 °C 7,2 °C 7,2 °C 91 % 999,6 hPa 0,0 mm - 3,2 km/h 7,9 km/h ONO 0,0 W/qm 0,0 nein 02:00
02:053,3 °C 7,2 °C 7,2 °C 91 % 999,6 hPa 0,0 mm 0,0 mm 1,4 km/h 7,9 km/h ONO 0,0 W/qm 0,0 nein 02:05
02:103,3 °C 7,2 °C 7,2 °C 91 % 999,5 hPa 0,0 mm 0,0 mm 1,4 km/h 7,9 km/h ONO 0,0 W/qm 0,0 nein 02:10
02:153,3 °C 7,2 °C 7,2 °C 91 % 999,5 hPa 0,0 mm - 1,4 km/h 6,5 km/h WNW 0,0 W/qm 0,0 nein 02:15
02:203,3 °C 6,7 °C 7,2 °C 91 % 999,6 hPa 0,0 mm - 1,4 km/h 6,5 km/h NO 0,0 W/qm 0,0 nein 02:20
02:253,3 °C 6,7 °C 7,2 °C 91 % 999,5 hPa 0,0 mm - 1,4 km/h 6,5 km/h NO 0,0 W/qm 0,0 nein 02:25
02:303,3 °C 6,7 °C 7,2 °C 91 % 999,5 hPa 0,0 mm - 1,4 km/h 6,5 km/h N 0,0 W/qm 0,0 nein 02:30
02:353,3 °C 6,7 °C 7,2 °C 91 % 999,4 hPa 0,0 mm - 1,4 km/h 6,5 km/h ONO 0,0 W/qm 0,0 nein 02:35
02:403,3 °C 6,7 °C 7,2 °C 91 % 999,2 hPa 0,0 mm - 1,4 km/h 4,7 km/h ONO 0,0 W/qm 0,0 nein 02:40
02:453,3 °C 6,7 °C 7,2 °C 91 % 999,3 hPa 0,0 mm - 1,4 km/h 6,5 km/h ONO 0,0 W/qm 0,0 nein 02:45
02:503,3 °C 6,7 °C 7,2 °C 91 % 999,2 hPa 0,0 mm - 0,0 km/h 6,5 km/h ONO 0,0 W/qm 0,0 nein 02:50
02:553,3 °C 6,7 °C 7,2 °C 92 % 999,2 hPa 0,0 mm - 0,0 km/h 6,5 km/h ONO 0,0 W/qm 0,0 nein 02:55
03:003,3 °C 6,7 °C 7,2 °C 92 % 999,1 hPa 0,0 mm - 0,0 km/h 1,4 km/h ONO 0,0 W/qm 0,0 nein 03:00
03:053,3 °C 6,7 °C 7,2 °C 92 % 999,1 hPa 0,0 mm 0,0 mm 0,0 km/h 0,0 km/h ONO 0,0 W/qm 0,0 nein 03:05
03:103,2 °C 6,7 °C 7,2 °C 92 % 999,1 hPa 0,0 mm 0,0 mm 0,0 km/h 3,2 km/h ONO 0,0 W/qm 0,0 nein 03:10
03:153,2 °C 6,7 °C 7,2 °C 92 % 999,0 hPa 0,0 mm - 0,0 km/h 3,2 km/h ONO 0,0 W/qm 0,0 nein 03:15
03:203,2 °C 6,7 °C 7,2 °C 92 % 999,0 hPa 0,0 mm - 0,0 km/h 3,2 km/h NW 0,0 W/qm 0,0 nein 03:20
03:253,2 °C 6,7 °C 7,2 °C 92 % 999,1 hPa 0,0 mm - 0,0 km/h 3,2 km/h NW 0,0 W/qm 0,0 nein 03:25
03:303,2 °C 6,7 °C 7,2 °C 92 % 999,0 hPa 0,0 mm - 0,0 km/h 3,2 km/h NW 0,0 W/qm 0,0 nein 03:30
03:353,2 °C 6,7 °C 7,2 °C 92 % 998,9 hPa 0,0 mm - 0,0 km/h 3,2 km/h NO 0,0 W/qm 0,0 nein 03:35
03:403,2 °C 6,7 °C 7,2 °C 92 % 998,8 hPa 0,0 mm - 1,4 km/h 3,2 km/h NO 0,0 W/qm 0,0 nein 03:40
03:453,2 °C 6,7 °C 7,2 °C 92 % 998,8 hPa 0,0 mm - 0,0 km/h 4,7 km/h ONO 0,0 W/qm 0,0 nein 03:45
03:503,2 °C 6,7 °C 7,2 °C 92 % 998,8 hPa 0,0 mm - 0,0 km/h 4,7 km/h NO 0,0 W/qm 0,0 nein 03:50
03:553,2 °C 6,7 °C 7,2 °C 92 % 998,8 hPa 0,0 mm - 0,0 km/h 4,7 km/h NO 0,0 W/qm 0,0 nein 03:55
UhrzeitTemperaturBoden 10cmBoden 20cmFeuchteLuftdruckNiederschlagEvapotranspirationWindWindböenWindrichtungSolarstrahlungUV-IndexSonne?Uhrzeit
04:003,2 °C 6,7 °C 7,2 °C 92 % 998,7 hPa 0,0 mm - 0,0 km/h 4,7 km/h NO 0,0 W/qm 0,0 nein 04:00
04:053,2 °C 6,7 °C 7,2 °C 92 % 998,7 hPa 0,0 mm 0,0 mm 0,0 km/h 4,7 km/h NO 0,0 W/qm 0,0 nein 04:05
04:103,2 °C 6,7 °C 7,2 °C 92 % 998,7 hPa 0,0 mm 0,0 mm 0,0 km/h 4,7 km/h NO 0,0 W/qm 0,0 nein 04:10
04:153,2 °C 6,7 °C 7,2 °C 92 % 998,6 hPa 0,0 mm - 0,0 km/h 3,2 km/h NO 0,0 W/qm 0,0 nein 04:15
04:203,2 °C 6,7 °C 7,2 °C 92 % 998,5 hPa 0,0 mm - 1,4 km/h 3,2 km/h NO 0,0 W/qm 0,0 nein 04:20
04:253,2 °C 6,7 °C 7,2 °C 92 % 998,5 hPa 0,0 mm - 3,2 km/h 7,9 km/h NO 0,0 W/qm 0,0 nein 04:25
04:303,2 °C 6,7 °C 7,2 °C 92 % 998,4 hPa 0,0 mm - 3,2 km/h 7,9 km/h NO 0,0 W/qm 0,0 nein 04:30
04:353,2 °C 6,7 °C 7,2 °C 92 % 998,3 hPa 0,0 mm - 1,4 km/h 7,9 km/h NNO 0,0 W/qm 0,0 nein 04:35
04:403,2 °C 6,7 °C 7,2 °C 92 % 998,2 hPa 0,0 mm - 3,2 km/h 7,9 km/h ONO 0,0 W/qm 0,0 nein 04:40
04:453,2 °C 6,7 °C 7,2 °C 92 % 998,2 hPa 0,0 mm - 3,2 km/h 6,5 km/h ONO 0,0 W/qm 0,0 nein 04:45
04:503,2 °C 6,7 °C 7,2 °C 92 % 998,2 hPa 0,0 mm - 1,4 km/h 6,5 km/h NNO 0,0 W/qm 0,0 nein 04:50
04:553,2 °C 6,7 °C 7,2 °C 92 % 998,2 hPa 0,0 mm - 1,4 km/h 6,5 km/h NO 0,0 W/qm 0,0 nein 04:55
05:003,2 °C 6,7 °C 7,2 °C 92 % 998,1 hPa 0,0 mm - 1,4 km/h 6,5 km/h NO 0,0 W/qm 0,0 nein 05:00
05:053,2 °C 6,7 °C 7,2 °C 92 % 998,1 hPa 0,0 mm 0,0 mm 3,2 km/h 6,5 km/h ONO 0,0 W/qm 0,0 nein 05:05
05:103,2 °C 6,7 °C 7,2 °C 92 % 998,0 hPa 0,0 mm 0,0 mm 1,4 km/h 6,5 km/h NO 0,0 W/qm 0,0 nein 05:10
05:153,2 °C 6,7 °C 7,2 °C 92 % 998,0 hPa 0,0 mm - 1,4 km/h 6,5 km/h NO 0,0 W/qm 0,0 nein 05:15
05:203,2 °C 6,7 °C 7,2 °C 92 % 997,9 hPa 0,0 mm - 1,4 km/h 6,5 km/h NO 0,0 W/qm 0,0 nein 05:20
05:253,1 °C 6,7 °C 7,2 °C 92 % 997,8 hPa 0,0 mm - 3,2 km/h 6,5 km/h ONO 0,0 W/qm 0,0 nein 05:25
05:303,1 °C 6,7 °C 7,2 °C 92 % 997,8 hPa 0,0 mm - 3,2 km/h 6,5 km/h ONO 0,0 W/qm 0,0 nein 05:30
05:353,1 °C 6,7 °C 7,2 °C 93 % 997,7 hPa 0,0 mm - 4,7 km/h 7,9 km/h NO 0,0 W/qm 0,0 nein 05:35
05:403,1 °C 6,7 °C 7,2 °C 92 % 997,7 hPa 0,0 mm - 4,7 km/h 7,9 km/h NNO 0,0 W/qm 0,0 nein 05:40
05:453,1 °C 6,7 °C 7,2 °C 93 % 997,6 hPa 0,0 mm - 3,2 km/h 7,9 km/h ONO 0,0 W/qm 0,0 nein 05:45
05:503,1 °C 6,7 °C 7,2 °C 93 % 997,6 hPa 0,0 mm - 1,4 km/h 7,9 km/h N 0,0 W/qm 0,0 nein 05:50
05:553,1 °C 6,7 °C 7,2 °C 93 % 997,6 hPa 0,0 mm - 1,4 km/h 6,5 km/h NO 0,0 W/qm 0,0 nein 05:55
UhrzeitTemperaturBoden 10cmBoden 20cmFeuchteLuftdruckNiederschlagEvapotranspirationWindWindböenWindrichtungSolarstrahlungUV-IndexSonne?Uhrzeit
06:003,1 °C 6,7 °C 7,2 °C 93 % 997,6 hPa 0,0 mm - 1,4 km/h 4,7 km/h NO 0,0 W/qm 0,0 nein 06:00
06:053,1 °C 6,7 °C 7,2 °C 93 % 997,7 hPa 0,0 mm 0,0 mm 1,4 km/h 4,7 km/h NO 0,0 W/qm 0,0 nein 06:05
06:103,1 °C 6,7 °C 7,2 °C 93 % 997,6 hPa 0,0 mm 0,0 mm 1,4 km/h 4,7 km/h NO 0,0 W/qm 0,0 nein 06:10
06:153,1 °C 6,7 °C 7,2 °C 93 % 997,7 hPa 0,0 mm - 1,4 km/h 7,9 km/h NO 0,0 W/qm 0,0 nein 06:15
06:203,2 °C 6,7 °C 7,2 °C 93 % 997,7 hPa 0,0 mm - 1,4 km/h 7,9 km/h NO 0,0 W/qm 0,0 nein 06:20
06:253,2 °C 6,7 °C 7,2 °C 93 % 997,6 hPa 0,0 mm - 1,4 km/h 7,9 km/h ONO 0,0 W/qm 0,0 nein 06:25
06:303,2 °C 6,7 °C 7,2 °C 93 % 997,6 hPa 0,0 mm - 3,2 km/h 7,9 km/h NO 0,0 W/qm 0,0 nein 06:30
06:353,2 °C 6,7 °C 7,2 °C 93 % 997,5 hPa 0,0 mm - 3,2 km/h 6,5 km/h ONO 0,0 W/qm 0,0 nein 06:35
06:403,2 °C 6,7 °C 7,2 °C 93 % 997,5 hPa 0,0 mm - 1,4 km/h 6,5 km/h ONO 0,0 W/qm 0,0 nein 06:40
06:453,2 °C 6,7 °C 7,2 °C 93 % 997,6 hPa 0,0 mm - 1,4 km/h 6,5 km/h ONO 0,0 W/qm 0,0 nein 06:45
06:503,2 °C 6,7 °C 7,2 °C 93 % 997,6 hPa 0,0 mm - 0,0 km/h 6,5 km/h NNO 0,0 W/qm 0,0 nein 06:50
06:553,2 °C 6,7 °C 7,2 °C 93 % 997,6 hPa 0,0 mm - 0,0 km/h 4,7 km/h NNO 0,0 W/qm 0,0 nein 06:55
07:003,2 °C 6,7 °C 7,2 °C 93 % 997,6 hPa 0,0 mm - 0,0 km/h 4,7 km/h NNO 0,0 W/qm 0,0 nein 07:00
07:053,2 °C 6,7 °C 7,2 °C 93 % 997,6 hPa 0,0 mm 0,0 mm 0,0 km/h 0,0 km/h NNO 0,0 W/qm 0,0 nein 07:05
07:103,2 °C 6,7 °C 7,2 °C 94 % 997,6 hPa 0,0 mm 0,0 mm 0,0 km/h 1,4 km/h NNO 0,0 W/qm 0,0 nein 07:10
07:153,2 °C 6,7 °C 7,2 °C 94 % 997,6 hPa 0,0 mm - 0,0 km/h 3,2 km/h NNO 5,0 W/qm 0,0 nein 07:15
07:203,2 °C 6,7 °C 7,2 °C 94 % 997,7 hPa 0,0 mm - 0,0 km/h 3,2 km/h NNO 5,0 W/qm 0,0 nein 07:20
07:253,3 °C 6,7 °C 7,2 °C 94 % 997,7 hPa 0,0 mm - 0,0 km/h 4,7 km/h NNO 7,0 W/qm 0,0 nein 07:25
07:303,3 °C 6,7 °C 7,2 °C 94 % 997,7 hPa 0,0 mm - 0,0 km/h 4,7 km/h NNO 9,0 W/qm 0,0 nein 07:30
07:353,3 °C 6,7 °C 7,2 °C 94 % 997,7 hPa 0,0 mm - 0,0 km/h 4,7 km/h NNO 9,0 W/qm 0,0 nein 07:35
07:403,3 °C 6,7 °C 7,2 °C 94 % 997,4 hPa 0,0 mm - 0,0 km/h 3,2 km/h NNO 12,0 W/qm 0,0 nein 07:40
07:453,3 °C 6,7 °C 7,2 °C 94 % 997,4 hPa 0,0 mm - 0,0 km/h 0,0 km/h NNO 14,0 W/qm 0,0 nein 07:45
07:503,4 °C 6,7 °C 7,2 °C 94 % 997,4 hPa 0,0 mm - 0,0 km/h 4,7 km/h NO 18,0 W/qm 0,0 nein 07:50
07:553,4 °C 6,7 °C 7,2 °C 94 % 997,3 hPa 0,0 mm - 0,0 km/h 4,7 km/h NO 21,0 W/qm 0,0 nein 07:55
UhrzeitTemperaturBoden 10cmBoden 20cmFeuchteLuftdruckNiederschlagEvapotranspirationWindWindböenWindrichtungSolarstrahlungUV-IndexSonne?Uhrzeit
08:003,4 °C 6,7 °C 7,2 °C 94 % 997,4 hPa 0,0 mm - 0,0 km/h 4,7 km/h NO 23,0 W/qm 0,0 nein 08:00
08:053,4 °C 6,7 °C 7,2 °C 94 % 997,5 hPa 0,0 mm 0,0 mm 0,0 km/h 3,2 km/h NO 21,0 W/qm 0,0 nein 08:05
08:103,4 °C 6,7 °C 7,2 °C 94 % 997,4 hPa 0,0 mm 0,0 mm 0,0 km/h 3,2 km/h NO 26,0 W/qm 0,0 nein 08:10
08:153,5 °C 6,7 °C 7,2 °C 94 % 997,3 hPa 0,0 mm - 0,0 km/h 3,2 km/h NO 32,0 W/qm 0,0 nein 08:15
08:203,5 °C 6,7 °C 7,2 °C 94 % 997,3 hPa 0,0 mm - 0,0 km/h 4,7 km/h NO 35,0 W/qm 0,0 nein 08:20
08:253,5 °C 6,7 °C 7,2 °C 94 % 997,4 hPa 0,0 mm - 0,0 km/h 4,7 km/h NO 35,0 W/qm 0,0 nein 08:25
08:303,5 °C 6,7 °C 7,2 °C 94 % 997,4 hPa 0,0 mm - 1,4 km/h 6,5 km/h NO 35,0 W/qm 0,0 nein 08:30
08:353,6 °C 6,7 °C 7,2 °C 94 % 997,4 hPa 0,0 mm - 1,4 km/h 6,5 km/h NO 32,0 W/qm 0,0 nein 08:35
08:403,6 °C 6,7 °C 7,2 °C 94 % 997,4 hPa 0,0 mm - 1,4 km/h 6,5 km/h NO 28,0 W/qm 0,0 nein 08:40
08:453,6 °C 6,7 °C 7,2 °C 94 % 997,3 hPa 0,0 mm - 1,4 km/h 4,7 km/h ONO 33,0 W/qm 0,0 nein 08:45
08:503,6 °C 6,7 °C 7,2 °C 94 % 997,3 hPa 0,0 mm - 1,4 km/h 4,7 km/h ONO 33,0 W/qm 0,0 nein 08:50
08:553,7 °C 6,7 °C 7,2 °C 94 % 997,3 hPa 0,0 mm - 1,4 km/h 4,7 km/h O 32,0 W/qm 0,0 nein 08:55
09:003,6 °C 6,7 °C 7,2 °C 94 % 997,4 hPa 0,0 mm - 0,0 km/h 4,7 km/h O 37,0 W/qm 0,0 nein 09:00
09:053,7 °C 6,7 °C 7,2 °C 94 % 997,4 hPa 0,0 mm 0,0 mm 1,4 km/h 6,5 km/h ONO 39,0 W/qm 0,0 nein 09:05
09:103,7 °C 6,7 °C 7,2 °C 94 % 997,4 hPa 0,0 mm 0,0 mm 1,4 km/h 6,5 km/h ONO 44,0 W/qm 0,0 nein 09:10
09:153,7 °C 6,7 °C 7,2 °C 94 % 997,4 hPa 0,0 mm - 0,0 km/h 6,5 km/h ONO 47,0 W/qm 0,0 nein 09:15
09:203,8 °C 6,7 °C 7,2 °C 94 % 997,4 hPa 0,0 mm - 0,0 km/h 6,5 km/h ONO 49,0 W/qm 0,0 nein 09:20
09:253,8 °C 6,7 °C 7,2 °C 94 % 997,4 hPa 0,0 mm - 0,0 km/h 3,2 km/h ONO 49,0 W/qm 0,0 nein 09:25
09:303,8 °C 6,7 °C 7,2 °C 94 % 997,4 hPa 0,0 mm - 0,0 km/h 4,7 km/h ONO 49,0 W/qm 0,0 nein 09:30
09:353,9 °C 6,7 °C 7,2 °C 94 % 997,3 hPa 0,0 mm - 1,4 km/h 4,7 km/h ONO 62,0 W/qm 0,0 nein 09:35
09:403,9 °C 6,7 °C 7,2 °C 94 % 997,3 hPa 0,0 mm - 3,2 km/h 6,5 km/h NO 62,0 W/qm 0,0 nein 09:40
09:454,0 °C 6,7 °C 7,2 °C 94 % 997,1 hPa 0,0 mm - 3,2 km/h 6,5 km/h NO 63,0 W/qm 0,0 nein 09:45
09:504,0 °C 6,7 °C 7,2 °C 94 % 997,2 hPa 0,0 mm - 3,2 km/h 6,5 km/h NNO 69,0 W/qm 0,0 nein 09:50
09:554,1 °C 6,7 °C 7,2 °C 94 % 997,1 hPa 0,0 mm - 1,4 km/h 6,5 km/h NNO 83,0 W/qm 0,0 nein 09:55
UhrzeitTemperaturBoden 10cmBoden 20cmFeuchteLuftdruckNiederschlagEvapotranspirationWindWindböenWindrichtungSolarstrahlungUV-IndexSonne?Uhrzeit
10:004,1 °C 6,7 °C 7,2 °C 94 % 997,0 hPa 0,0 mm - 1,4 km/h 6,5 km/h ONO 81,0 W/qm 0,0 nein 10:00
10:054,2 °C 6,7 °C 7,2 °C 94 % 997,1 hPa 0,0 mm 0,1 mm 3,2 km/h 7,9 km/h NO 98,0 W/qm 0,0 nein 10:05
10:104,2 °C 6,7 °C 7,2 °C 94 % 997,1 hPa 0,0 mm 0,1 mm 3,2 km/h 7,9 km/h NO 86,0 W/qm 0,0 nein 10:10
10:154,3 °C 6,7 °C 7,2 °C 94 % 997,0 hPa 0,0 mm - 1,4 km/h 7,9 km/h NO 100,0 W/qm 0,0 nein 10:15
10:204,3 °C 6,7 °C 7,2 °C 94 % 997,0 hPa 0,0 mm - 1,4 km/h 6,5 km/h ONO 105,0 W/qm 0,0 nein 10:20
10:254,4 °C 6,7 °C 7,2 °C 94 % 997,0 hPa 0,0 mm - 3,2 km/h 6,5 km/h NNO 111,0 W/qm 0,0 nein 10:25
10:304,5 °C 6,7 °C 7,2 °C 94 % 997,0 hPa 0,0 mm - 3,2 km/h 7,9 km/h N 127,0 W/qm 0,0 nein 10:30
10:354,6 °C 6,7 °C 7,2 °C 94 % 996,9 hPa 0,0 mm - 4,7 km/h 7,9 km/h ONO 130,0 W/qm 0,5 nein 10:35
10:404,7 °C 6,7 °C 7,2 °C 94 % 996,8 hPa 0,0 mm - 6,5 km/h 9,7 km/h NO 139,0 W/qm 0,5 nein 10:40
10:454,7 °C 6,7 °C 7,2 °C 94 % 996,9 hPa 0,0 mm - 4,7 km/h 9,7 km/h NO 142,0 W/qm 0,5 nein 10:45
10:504,8 °C 6,7 °C 7,2 °C 94 % 996,8 hPa 0,0 mm - 4,7 km/h 9,7 km/h NO 139,0 W/qm 0,5 nein 10:50
10:554,8 °C 6,7 °C 7,2 °C 94 % 996,8 hPa 0,0 mm - 4,7 km/h 9,7 km/h NO 121,0 W/qm 0,0 nein 10:55
11:004,9 °C 6,7 °C 7,2 °C 94 % 996,8 hPa 0,0 mm - 4,7 km/h 9,7 km/h ONO 107,0 W/qm 0,0 nein 11:00
11:054,9 °C 6,7 °C 6,7 °C 93 % 996,8 hPa 0,0 mm 0,1 mm 3,2 km/h 9,7 km/h NNO 120,0 W/qm 0,0 nein 11:05
11:104,9 °C 6,7 °C 6,7 °C 93 % 996,8 hPa 0,0 mm 0,1 mm 3,2 km/h 9,7 km/h NNO 128,0 W/qm 0,5 nein 11:10
11:154,9 °C 6,7 °C 6,7 °C 93 % 996,9 hPa 0,0 mm - 4,7 km/h 6,5 km/h NO 176,0 W/qm 0,7 nein 11:15
11:205,1 °C 6,7 °C 6,7 °C 93 % 996,8 hPa 0,0 mm - 4,7 km/h 7,9 km/h NO 158,0 W/qm 0,6 nein 11:20
11:255,2 °C 6,7 °C 6,7 °C 93 % 996,6 hPa 0,0 mm - 4,7 km/h 7,9 km/h N 128,0 W/qm 0,5 nein 11:25
11:305,2 °C 6,7 °C 6,7 °C 93 % 996,6 hPa 0,0 mm - 4,7 km/h 9,7 km/h NO 125,0 W/qm 0,5 nein 11:30
11:355,2 °C 6,7 °C 6,7 °C 93 % 996,6 hPa 0,0 mm - 4,7 km/h 11,2 km/h NO 118,0 W/qm 0,0 nein 11:35
11:405,3 °C 6,7 °C 6,7 °C 93 % 996,6 hPa 0,0 mm - 3,2 km/h 11,2 km/h NO 121,0 W/qm 0,5 nein 11:40
11:455,3 °C 6,7 °C 6,7 °C 93 % 996,5 hPa 0,0 mm - 3,2 km/h 11,2 km/h ONO 167,0 W/qm 0,6 nein 11:45
11:505,4 °C 6,7 °C 6,7 °C 92 % 996,5 hPa 0,0 mm - 3,2 km/h 7,9 km/h NO 167,0 W/qm 0,6 nein 11:50
11:555,4 °C 6,7 °C 6,7 °C 92 % 996,6 hPa 0,0 mm - 3,2 km/h 7,9 km/h NNO 128,0 W/qm 0,0 nein 11:55
UhrzeitTemperaturBoden 10cmBoden 20cmFeuchteLuftdruckNiederschlagEvapotranspirationWindWindböenWindrichtungSolarstrahlungUV-IndexSonne?Uhrzeit
12:005,4 °C 6,7 °C 6,7 °C 92 % 996,5 hPa 0,0 mm - 4,7 km/h 7,9 km/h ONO 151,0 W/qm 0,6 nein 12:00
12:055,4 °C 6,7 °C 6,7 °C 92 % 996,5 hPa 0,0 mm 0,2 mm 4,7 km/h 9,7 km/h NO 144,0 W/qm 0,5 nein 12:05
12:105,4 °C 6,7 °C 6,7 °C 92 % 996,3 hPa 0,0 mm 0,2 mm 3,2 km/h 9,7 km/h NO 116,0 W/qm 0,0 nein 12:10
12:155,4 °C 6,7 °C 6,7 °C 92 % 996,4 hPa 0,0 mm - 3,2 km/h 9,7 km/h NO 172,0 W/qm 0,6 nein 12:15
12:205,6 °C 6,7 °C 6,7 °C 92 % 996,4 hPa 0,0 mm - 4,7 km/h 11,2 km/h NNO 160,0 W/qm 0,6 nein 12:20
12:255,6 °C 6,7 °C 6,7 °C 91 % 996,3 hPa 0,0 mm - 4,7 km/h 11,2 km/h ONO 230,0 W/qm 0,9 nein 12:25
12:305,8 °C 6,7 °C 6,7 °C 91 % 996,2 hPa 0,0 mm - 6,5 km/h 11,2 km/h NO 272,0 W/qm 1,0 nein 12:30
12:355,9 °C 6,7 °C 6,7 °C 91 % 996,1 hPa 0,0 mm - 7,9 km/h 14,4 km/h ONO 250,0 W/qm 1,0 nein 12:35
12:405,9 °C 6,7 °C 6,7 °C 91 % 996,1 hPa 0,0 mm - 7,9 km/h 14,4 km/h NO 239,0 W/qm 1,0 nein 12:40
12:455,9 °C 6,7 °C 6,7 °C 91 % 996,1 hPa 0,0 mm - 7,9 km/h 13,0 km/h ONO 257,0 W/qm 1,0 nein 12:45
12:505,9 °C 6,7 °C 6,7 °C 90 % 996,0 hPa 0,0 mm - 7,9 km/h 13,0 km/h ONO 260,0 W/qm 1,0 nein 12:50
12:556,0 °C 6,7 °C 6,7 °C 90 % 996,0 hPa 0,0 mm - 7,9 km/h 14,4 km/h NO 223,0 W/qm 0,9 nein 12:55
13:005,9 °C 6,7 °C 6,7 °C 90 % 995,9 hPa 0,0 mm - 7,9 km/h 14,4 km/h ONO 190,0 W/qm 0,7 nein 13:00
13:055,9 °C 6,7 °C 6,7 °C 90 % 995,9 hPa 0,0 mm 0,3 mm 6,5 km/h 14,4 km/h NO 139,0 W/qm 0,5 nein 13:05
13:105,9 °C 6,7 °C 6,7 °C 90 % 995,9 hPa 0,0 mm 0,3 mm 6,5 km/h 13,0 km/h NO 132,0 W/qm 0,5 nein 13:10
13:155,9 °C 6,7 °C 6,7 °C 90 % 995,9 hPa 0,0 mm - 6,5 km/h 13,0 km/h NO 114,0 W/qm 0,0 nein 13:15
13:205,9 °C 6,7 °C 6,7 °C 90 % 995,9 hPa 0,0 mm - 4,7 km/h 13,0 km/h NO 120,0 W/qm 0,5 nein 13:20
13:255,9 °C 6,7 °C 6,7 °C 89 % 995,9 hPa 0,0 mm - 3,2 km/h 11,2 km/h NO 109,0 W/qm 0,0 nein 13:25
13:305,9 °C 6,7 °C 6,7 °C 89 % 995,8 hPa 0,0 mm - 3,2 km/h 9,7 km/h NO 137,0 W/qm 0,6 nein 13:30
13:355,9 °C 6,7 °C 6,7 °C 89 % 995,8 hPa 0,0 mm - 4,7 km/h 7,9 km/h NO 121,0 W/qm 0,5 nein 13:35
13:406,1 °C 6,7 °C 6,7 °C 89 % 995,8 hPa 0,0 mm - 3,2 km/h 7,9 km/h NO 111,0 W/qm 0,0 nein 13:40
13:456,1 °C 6,7 °C 6,7 °C 88 % 995,8 hPa 0,0 mm - 3,2 km/h 7,9 km/h NO 104,0 W/qm 0,0 nein 13:45
13:506,1 °C 6,7 °C 7,2 °C 88 % 995,7 hPa 0,0 mm - 4,7 km/h 9,7 km/h NO 118,0 W/qm 0,5 nein 13:50
13:556,1 °C 6,7 °C 7,2 °C 88 % 995,7 hPa 0,0 mm - 4,7 km/h 11,2 km/h NO 118,0 W/qm 0,5 nein 13:55
UhrzeitTemperaturBoden 10cmBoden 20cmFeuchteLuftdruckNiederschlagEvapotranspirationWindWindböenWindrichtungSolarstrahlungUV-IndexSonne?Uhrzeit
14:006,2 °C 6,7 °C 7,2 °C 88 % 995,7 hPa 0,0 mm - 4,7 km/h 11,2 km/h NO 123,0 W/qm 0,5 nein 14:00
14:056,2 °C 6,7 °C 7,2 °C 88 % 995,7 hPa 0,0 mm 0,3 mm 4,7 km/h 11,2 km/h ONO 135,0 W/qm 0,5 nein 14:05
14:106,3 °C 6,7 °C 7,2 °C 88 % 995,6 hPa 0,0 mm 0,3 mm 4,7 km/h 7,9 km/h NNO 178,0 W/qm 0,7 nein 14:10
14:156,3 °C 6,7 °C 7,2 °C 88 % 995,6 hPa 0,0 mm - 6,5 km/h 9,7 km/h NNO 218,0 W/qm 0,8 nein 14:15
14:206,4 °C 6,7 °C 7,2 °C 87 % 995,5 hPa 0,0 mm - 6,5 km/h 9,7 km/h NO 250,0 W/qm 0,9 nein 14:20
14:256,6 °C 6,7 °C 7,2 °C 87 % 995,4 hPa 0,0 mm - 6,5 km/h 13,0 km/h NO 241,0 W/qm 0,9 nein 14:25
14:306,6 °C 6,7 °C 7,2 °C 87 % 995,5 hPa 0,0 mm - 6,5 km/h 13,0 km/h ONO 220,0 W/qm 0,9 nein 14:30
14:356,7 °C 6,7 °C 7,2 °C 87 % 995,4 hPa 0,0 mm - 7,9 km/h 13,0 km/h NNO 216,0 W/qm 0,8 nein 14:35
14:406,7 °C 6,7 °C 7,2 °C 86 % 995,4 hPa 0,0 mm - 7,9 km/h 14,4 km/h NO 244,0 W/qm 0,9 nein 14:40
14:456,7 °C 6,7 °C 7,2 °C 86 % 995,4 hPa 0,0 mm - 6,5 km/h 14,4 km/h NO 258,0 W/qm 1,0 nein 14:45
14:506,8 °C 6,7 °C 7,2 °C 86 % 995,3 hPa 0,0 mm - 6,5 km/h 11,2 km/h ONO 258,0 W/qm 1,0 nein 14:50
14:556,9 °C 6,7 °C 7,2 °C 85 % 995,3 hPa 0,0 mm - 6,5 km/h 11,2 km/h NNO 271,0 W/qm 1,0 nein 14:55
15:007,1 °C 6,7 °C 7,2 °C 85 % 995,2 hPa 0,0 mm - 6,5 km/h 13,0 km/h NO 272,0 W/qm 1,0 nein 15:00
15:057,2 °C 6,7 °C 7,2 °C 85 % 995,2 hPa 0,0 mm 0,4 mm 4,7 km/h 13,0 km/h NNO 265,0 W/qm 0,9 nein 15:05
15:107,1 °C 6,7 °C 7,2 °C 84 % 995,1 hPa 0,0 mm 0,4 mm 6,5 km/h 11,2 km/h NO 239,0 W/qm 0,9 nein 15:10
15:157,1 °C 6,7 °C 7,2 °C 84 % 995,1 hPa 0,0 mm - 7,9 km/h 13,0 km/h O 250,0 W/qm 0,9 nein 15:15
15:207,1 °C 6,7 °C 7,2 °C 84 % 995,0 hPa 0,0 mm - 6,5 km/h 13,0 km/h ONO 267,0 W/qm 0,9 nein 15:20
15:257,2 °C 6,7 °C 7,2 °C 85 % 995,0 hPa 0,0 mm - 4,7 km/h 13,0 km/h NO 299,0 W/qm 1,0 ja 15:25
15:307,3 °C 7,2 °C 7,2 °C 85 % 995,0 hPa 0,0 mm - 6,5 km/h 13,0 km/h NO 315,0 W/qm 1,0 ja 15:30
15:357,4 °C 7,2 °C 7,2 °C 84 % 995,0 hPa 0,0 mm - 6,5 km/h 13,0 km/h NO 320,0 W/qm 1,0 ja 15:35
15:407,4 °C 7,2 °C 7,2 °C 84 % 994,8 hPa 0,0 mm - 6,5 km/h 13,0 km/h ONO 323,0 W/qm 1,1 ja 15:40
15:457,5 °C 7,2 °C 7,2 °C 84 % 994,9 hPa 0,0 mm - 6,5 km/h 13,0 km/h ONO 281,0 W/qm 1,0 ja 15:45
15:507,4 °C 7,2 °C 7,2 °C 84 % 994,8 hPa 0,0 mm - 6,5 km/h 13,0 km/h NO 257,0 W/qm 0,9 nein 15:50
15:557,4 °C 7,2 °C 7,2 °C 84 % 994,7 hPa 0,0 mm - 4,7 km/h 13,0 km/h ONO 234,0 W/qm 0,9 nein 15:55
UhrzeitTemperaturBoden 10cmBoden 20cmFeuchteLuftdruckNiederschlagEvapotranspirationWindWindböenWindrichtungSolarstrahlungUV-IndexSonne?Uhrzeit
16:007,5 °C 7,2 °C 7,2 °C 83 % 994,7 hPa 0,0 mm - 4,7 km/h 11,2 km/h NO 260,0 W/qm 1,0 nein 16:00
16:057,5 °C 7,2 °C 7,2 °C 83 % 994,6 hPa 0,0 mm 0,5 mm 4,7 km/h 11,2 km/h ONO 285,0 W/qm 1,0 ja 16:05
16:107,5 °C 7,2 °C 7,2 °C 82 % 994,6 hPa 0,0 mm 0,5 mm 4,7 km/h 11,2 km/h NW 309,0 W/qm 1,0 ja 16:10
16:157,7 °C 7,2 °C 7,2 °C 83 % 994,4 hPa 0,0 mm - 4,7 km/h 11,2 km/h NO 267,0 W/qm 0,8 nein 16:15
16:207,6 °C 7,2 °C 7,2 °C 83 % 994,4 hPa 0,0 mm - 6,5 km/h 9,7 km/h NO 197,0 W/qm 0,7 nein 16:20
16:257,6 °C 7,2 °C 7,2 °C 83 % 994,4 hPa 0,0 mm - 6,5 km/h 9,7 km/h NO 176,0 W/qm 0,6 nein 16:25
16:307,4 °C 7,2 °C 7,2 °C 83 % 994,5 hPa 0,0 mm - 6,5 km/h 13,0 km/h O 139,0 W/qm 0,5 nein 16:30
16:357,4 °C 7,2 °C 7,2 °C 83 % 994,5 hPa 0,0 mm - 6,5 km/h 13,0 km/h ONO 148,0 W/qm 0,5 nein 16:35
16:407,4 °C 7,2 °C 7,2 °C 84 % 994,5 hPa 0,0 mm - 6,5 km/h 13,0 km/h NO 172,0 W/qm 0,5 nein 16:40
16:457,3 °C 7,2 °C 7,2 °C 83 % 994,5 hPa 0,0 mm - 6,5 km/h 14,4 km/h O 149,0 W/qm 0,5 nein 16:45
16:507,3 °C 7,2 °C 7,2 °C 84 % 994,4 hPa 0,0 mm - 4,7 km/h 14,4 km/h NO 141,0 W/qm 0,5 nein 16:50
16:557,3 °C 7,2 °C 7,2 °C 84 % 994,5 hPa 0,0 mm - 6,5 km/h 14,4 km/h O 176,0 W/qm 0,5 nein 16:55
17:007,3 °C 7,2 °C 7,2 °C 85 % 994,4 hPa 0,0 mm - 6,5 km/h 14,4 km/h NO 181,0 W/qm 0,5 nein 17:00
17:057,2 °C 7,2 °C 7,2 °C 84 % 994,4 hPa 0,0 mm 0,6 mm 6,5 km/h 13,0 km/h ONO 162,0 W/qm 0,5 nein 17:05
17:107,2 °C 7,2 °C 7,2 °C 84 % 994,4 hPa 0,2 mm 0,6 mm 6,5 km/h 16,2 km/h NO 137,0 W/qm 0,0 nein 17:10
17:157,1 °C 7,2 °C 7,2 °C 84 % 994,4 hPa 0,0 mm - 7,9 km/h 16,2 km/h NO 144,0 W/qm 0,0 nein 17:15
17:207,1 °C 7,2 °C 7,2 °C 85 % 994,4 hPa 0,0 mm - 9,7 km/h 16,2 km/h NW 148,0 W/qm 0,0 nein 17:20
17:257,1 °C 7,2 °C 7,2 °C 85 % 994,4 hPa 0,0 mm - 7,9 km/h 16,2 km/h ONO 167,0 W/qm 0,0 nein 17:25
17:307,1 °C 7,2 °C 7,2 °C 85 % 994,3 hPa 0,0 mm - 7,9 km/h 16,2 km/h NO 183,0 W/qm 0,0 nein 17:30
17:357,1 °C 7,2 °C 7,2 °C 85 % 994,3 hPa 0,0 mm - 9,7 km/h 17,6 km/h NO 179,0 W/qm 0,0 nein 17:35
17:407,1 °C 7,2 °C 7,2 °C 85 % 994,3 hPa 0,0 mm - 9,7 km/h 17,6 km/h NO 172,0 W/qm 0,0 nein 17:40
17:457,1 °C 7,2 °C 7,2 °C 84 % 994,3 hPa 0,0 mm - 7,9 km/h 17,6 km/h NO 142,0 W/qm 0,0 nein 17:45
17:507,1 °C 7,2 °C 7,2 °C 84 % 994,3 hPa 0,0 mm - 6,5 km/h 14,4 km/h ONO 100,0 W/qm 0,0 nein 17:50
17:557,1 °C 7,2 °C 7,2 °C 84 % 994,3 hPa 0,0 mm - 6,5 km/h 14,4 km/h NO 100,0 W/qm 0,0 nein 17:55
UhrzeitTemperaturBoden 10cmBoden 20cmFeuchteLuftdruckNiederschlagEvapotranspirationWindWindböenWindrichtungSolarstrahlungUV-IndexSonne?Uhrzeit
18:007,1 °C 7,2 °C 7,2 °C 84 % 994,3 hPa 0,0 mm - 6,5 km/h 13,0 km/h NO 118,0 W/qm 0,0 nein 18:00
18:057,1 °C 7,2 °C 7,2 °C 84 % 994,3 hPa 0,0 mm 0,7 mm 6,5 km/h 13,0 km/h NO 91,0 W/qm 0,0 nein 18:05
18:107,1 °C 7,2 °C 7,2 °C 84 % 994,3 hPa 0,0 mm 0,7 mm 6,5 km/h 13,0 km/h NO 70,0 W/qm 0,0 nein 18:10
18:156,9 °C 7,2 °C 7,2 °C 84 % 994,3 hPa 0,0 mm - 7,9 km/h 13,0 km/h NO 62,0 W/qm 0,0 nein 18:15
18:206,8 °C 7,2 °C 7,2 °C 84 % 994,3 hPa 0,0 mm - 7,9 km/h 16,2 km/h NNO 54,0 W/qm 0,0 nein 18:20
18:256,8 °C 7,2 °C 7,2 °C 84 % 994,4 hPa 0,0 mm - 6,5 km/h 16,2 km/h NO 42,0 W/qm 0,0 nein 18:25
18:306,7 °C 7,2 °C 7,2 °C 84 % 994,5 hPa 0,0 mm - 6,5 km/h 16,2 km/h NNO 32,0 W/qm 0,0 nein 18:30
18:356,7 °C 7,2 °C 7,2 °C 84 % 994,5 hPa 0,0 mm - 4,7 km/h 13,0 km/h NO 30,0 W/qm 0,0 nein 18:35
18:406,6 °C 7,2 °C 7,2 °C 84 % 994,6 hPa 0,0 mm - 4,7 km/h 11,2 km/h NNO 35,0 W/qm 0,0 nein 18:40
18:456,6 °C 7,2 °C 7,2 °C 84 % 994,6 hPa 0,0 mm - 4,7 km/h 11,2 km/h NO 35,0 W/qm 0,0 nein 18:45
18:506,5 °C 7,2 °C 7,2 °C 84 % 994,6 hPa 0,0 mm - 4,7 km/h 11,2 km/h NO 30,0 W/qm 0,0 nein 18:50
18:556,5 °C 7,2 °C 7,2 °C 84 % 994,6 hPa 0,0 mm - 6,5 km/h 7,9 km/h ONO 26,0 W/qm 0,0 nein 18:55
19:006,4 °C 7,2 °C 7,2 °C 85 % 994,6 hPa 0,0 mm - 6,5 km/h 11,2 km/h NO 21,0 W/qm 0,0 nein 19:00
19:056,4 °C 7,2 °C 7,2 °C 84 % 994,6 hPa 0,0 mm 0,7 mm 6,5 km/h 11,2 km/h NNO 21,0 W/qm 0,0 nein 19:05
19:106,4 °C 7,2 °C 7,2 °C 85 % 994,6 hPa 0,0 mm 0,7 mm 6,5 km/h 11,2 km/h NO 21,0 W/qm 0,0 nein 19:10
19:156,3 °C 7,2 °C 7,2 °C 85 % 994,6 hPa 0,0 mm - 6,5 km/h 9,7 km/h NO 21,0 W/qm 0,0 nein 19:15
19:206,3 °C 7,2 °C 7,2 °C 85 % 994,6 hPa 0,0 mm - 6,5 km/h 9,7 km/h NO 18,0 W/qm 0,0 nein 19:20
19:256,2 °C 7,2 °C 7,2 °C 85 % 994,6 hPa 0,0 mm - 6,5 km/h 13,0 km/h NO 12,0 W/qm 0,0 nein 19:25
19:306,2 °C 7,2 °C 7,2 °C 85 % 994,6 hPa 0,0 mm - 6,5 km/h 13,0 km/h ONO 11,0 W/qm 0,0 nein 19:30
19:356,1 °C 7,2 °C 7,2 °C 85 % 994,7 hPa 0,0 mm - 6,5 km/h 14,4 km/h NNO 5,0 W/qm 0,0 nein 19:35
19:406,1 °C 7,2 °C 7,2 °C 85 % 994,7 hPa 0,0 mm - 7,9 km/h 14,4 km/h NNO 0,0 W/qm 0,0 nein 19:40
19:456,0 °C 7,2 °C 7,2 °C 85 % 994,8 hPa 0,0 mm - 7,9 km/h 17,6 km/h ONO 0,0 W/qm 0,0 nein 19:45
19:505,9 °C 7,2 °C 7,2 °C 85 % 994,7 hPa 0,0 mm - 6,5 km/h 17,6 km/h ONO 0,0 W/qm 0,0 nein 19:50
19:555,8 °C 7,2 °C 7,2 °C 86 % 994,8 hPa 0,0 mm - 6,5 km/h 17,6 km/h ONO 0,0 W/qm 0,0 nein 19:55
UhrzeitTemperaturBoden 10cmBoden 20cmFeuchteLuftdruckNiederschlagEvapotranspirationWindWindböenWindrichtungSolarstrahlungUV-IndexSonne?Uhrzeit
20:005,8 °C 7,2 °C 7,2 °C 86 % 994,9 hPa 0,0 mm - 6,5 km/h 13,0 km/h NNO 0,0 W/qm 0,0 nein 20:00
20:055,7 °C 7,2 °C 7,2 °C 86 % 994,9 hPa 0,0 mm 0,8 mm 4,7 km/h 13,0 km/h NO 0,0 W/qm 0,0 nein 20:05
20:105,7 °C 7,2 °C 7,2 °C 86 % 995,0 hPa 0,0 mm 0,8 mm 4,7 km/h 13,0 km/h O 0,0 W/qm 0,0 nein 20:10
20:155,7 °C 7,2 °C 7,2 °C 86 % 995,0 hPa 0,0 mm - 4,7 km/h 13,0 km/h ONO 0,0 W/qm 0,0 nein 20:15
20:205,6 °C 7,2 °C 7,2 °C 86 % 995,0 hPa 0,0 mm - 3,2 km/h 11,2 km/h ONO 0,0 W/qm 0,0 nein 20:20
20:255,6 °C 7,2 °C 7,2 °C 87 % 995,1 hPa 0,0 mm - 3,2 km/h 11,2 km/h NNO 0,0 W/qm 0,0 nein 20:25
20:305,6 °C 7,2 °C 7,2 °C 87 % 995,2 hPa 0,0 mm - 4,7 km/h 7,9 km/h NO 0,0 W/qm 0,0 nein 20:30
20:355,6 °C 7,2 °C 7,2 °C 87 % 995,2 hPa 0,0 mm - 4,7 km/h 13,0 km/h ONO 0,0 W/qm 0,0 nein 20:35
20:405,5 °C 7,2 °C 7,2 °C 87 % 995,4 hPa 0,0 mm - 4,7 km/h 13,0 km/h NO 0,0 W/qm 0,0 nein 20:40
20:455,5 °C 7,2 °C 7,2 °C 87 % 995,4 hPa 0,0 mm - 4,7 km/h 13,0 km/h NO 0,0 W/qm 0,0 nein 20:45
20:505,4 °C 7,2 °C 7,2 °C 87 % 995,4 hPa 0,0 mm - 4,7 km/h 11,2 km/h NO 0,0 W/qm 0,0 nein 20:50
20:555,4 °C 7,2 °C 7,2 °C 87 % 995,4 hPa 0,0 mm - 4,7 km/h 11,2 km/h ONO 0,0 W/qm 0,0 nein 20:55
21:005,4 °C 7,2 °C 7,2 °C 87 % 995,4 hPa 0,0 mm - 4,7 km/h 7,9 km/h NO 0,0 W/qm 0,0 nein 21:00
21:055,4 °C 7,2 °C 7,2 °C 87 % 995,5 hPa 0,0 mm 0,8 mm 3,2 km/h 7,9 km/h NO 0,0 W/qm 0,0 nein 21:05
21:105,3 °C 7,2 °C 7,2 °C 87 % 995,5 hPa 0,0 mm 0,8 mm 3,2 km/h 7,9 km/h NO 0,0 W/qm 0,0 nein 21:10
21:155,3 °C 7,2 °C 7,2 °C 87 % 995,5 hPa 0,0 mm - 3,2 km/h 7,9 km/h NO 0,0 W/qm 0,0 nein 21:15
21:205,3 °C 7,2 °C 7,2 °C 87 % 995,6 hPa 0,0 mm - 3,2 km/h 9,7 km/h NNO 0,0 W/qm 0,0 nein 21:20
21:255,3 °C 7,2 °C 7,2 °C 87 % 995,7 hPa 0,0 mm - 3,2 km/h 9,7 km/h NO 0,0 W/qm 0,0 nein 21:25
21:305,3 °C 7,2 °C 7,2 °C 87 % 995,8 hPa 0,0 mm - 3,2 km/h 9,7 km/h ONO 0,0 W/qm 0,0 nein 21:30
21:355,3 °C 7,2 °C 7,2 °C 87 % 995,8 hPa 0,0 mm - 3,2 km/h 9,7 km/h ONO 0,0 W/qm 0,0 nein 21:35
21:405,2 °C 7,2 °C 7,2 °C 87 % 995,8 hPa 0,0 mm - 3,2 km/h 9,7 km/h ONO 0,0 W/qm 0,0 nein 21:40
21:455,2 °C 7,2 °C 7,2 °C 87 % 995,9 hPa 0,0 mm - 3,2 km/h 9,7 km/h NNO 0,0 W/qm 0,0 nein 21:45
21:505,2 °C 7,2 °C 7,2 °C 87 % 995,8 hPa 0,0 mm - 4,7 km/h 9,7 km/h ONO 0,0 W/qm 0,0 nein 21:50
21:555,1 °C 7,2 °C 7,2 °C 87 % 995,8 hPa 0,0 mm - 6,5 km/h 9,7 km/h ONO 0,0 W/qm 0,0 nein 21:55
UhrzeitTemperaturBoden 10cmBoden 20cmFeuchteLuftdruckNiederschlagEvapotranspirationWindWindböenWindrichtungSolarstrahlungUV-IndexSonne?Uhrzeit
22:005,1 °C 7,2 °C 7,2 °C 87 % 995,8 hPa 0,0 mm - 4,7 km/h 9,7 km/h NO 0,0 W/qm 0,0 nein 22:00
22:055,1 °C 7,2 °C 7,2 °C 87 % 995,8 hPa 0,0 mm 0,8 mm 4,7 km/h 9,7 km/h NO 0,0 W/qm 0,0 nein 22:05
22:105,0 °C 7,2 °C 7,2 °C 87 % 995,7 hPa 0,0 mm 0,8 mm 4,7 km/h 7,9 km/h NO 0,0 W/qm 0,0 nein 22:10
22:154,9 °C 7,2 °C 7,2 °C 87 % 995,9 hPa 0,0 mm - 4,7 km/h 7,9 km/h NO 0,0 W/qm 0,0 nein 22:15
22:204,9 °C 7,2 °C 7,2 °C 87 % 995,9 hPa 0,0 mm - 4,7 km/h 9,7 km/h NO 0,0 W/qm 0,0 nein 22:20
22:254,9 °C 7,2 °C 7,2 °C 87 % 995,9 hPa 0,0 mm - 4,7 km/h 11,2 km/h ONO 0,0 W/qm 0,0 nein 22:25
22:304,9 °C 7,2 °C 7,2 °C 87 % 995,9 hPa 0,0 mm - 4,7 km/h 11,2 km/h NO 0,0 W/qm 0,0 nein 22:30
22:354,8 °C 7,2 °C 7,2 °C 87 % 995,9 hPa 0,0 mm - 4,7 km/h 11,2 km/h NO 0,0 W/qm 0,0 nein 22:35
22:404,8 °C 7,2 °C 7,2 °C 87 % 995,9 hPa 0,0 mm - 4,7 km/h 11,2 km/h ONO 0,0 W/qm 0,0 nein 22:40
22:454,8 °C 7,2 °C 7,2 °C 87 % 995,8 hPa 0,0 mm - 3,2 km/h 11,2 km/h NO 0,0 W/qm 0,0 nein 22:45
22:504,8 °C 7,2 °C 7,2 °C 87 % 995,9 hPa 0,0 mm - 3,2 km/h 7,9 km/h NO 0,0 W/qm 0,0 nein 22:50
22:554,8 °C 7,2 °C 7,2 °C 87 % 995,8 hPa 0,0 mm - 3,2 km/h 7,9 km/h ONO 0,0 W/qm 0,0 nein 22:55
23:004,8 °C 7,2 °C 7,2 °C 87 % 995,8 hPa 0,0 mm - 4,7 km/h 7,9 km/h NNO 0,0 W/qm 0,0 nein 23:00
23:054,7 °C 7,2 °C 7,2 °C 87 % 995,8 hPa 0,0 mm 0,8 mm 3,2 km/h 7,9 km/h NO 0,0 W/qm 0,0 nein 23:05
23:104,7 °C 7,2 °C 7,2 °C 87 % 995,8 hPa 0,0 mm 0,8 mm 4,7 km/h 7,9 km/h ONO 0,0 W/qm 0,0 nein 23:10
23:154,7 °C 7,2 °C 7,2 °C 87 % 995,7 hPa 0,0 mm - 6,5 km/h 11,2 km/h NO 0,0 W/qm 0,0 nein 23:15
23:204,7 °C 7,2 °C 7,2 °C 88 % 995,8 hPa 0,0 mm - 4,7 km/h 11,2 km/h ONO 0,0 W/qm 0,0 nein 23:20
23:254,6 °C 7,2 °C 7,2 °C 88 % 995,9 hPa 0,0 mm - 4,7 km/h 11,2 km/h NO 0,0 W/qm 0,0 nein 23:25
23:304,6 °C 7,2 °C 7,2 °C 88 % 995,9 hPa 0,0 mm - 3,2 km/h 7,9 km/h ONO 0,0 W/qm 0,0 nein 23:30
23:354,6 °C 7,2 °C 7,2 °C 88 % 995,9 hPa 0,0 mm - 3,2 km/h 7,9 km/h NO 0,0 W/qm 0,0 nein 23:35
23:404,6 °C 7,2 °C 7,2 °C 88 % 995,8 hPa 0,0 mm - 4,7 km/h 7,9 km/h NO 0,0 W/qm 0,0 nein 23:40
23:454,6 °C 7,2 °C 7,2 °C 88 % 995,7 hPa 0,0 mm - 4,7 km/h 7,9 km/h NO 0,0 W/qm 0,0 nein 23:45
23:504,6 °C 7,2 °C 7,2 °C 88 % 995,8 hPa 0,0 mm - 4,7 km/h 7,9 km/h NNO 0,0 W/qm 0,0 nein 23:50
23:554,6 °C 7,2 °C 7,2 °C 88 % 995,9 hPa 0,0 mm - 4,7 km/h 7,9 km/h NO 0,0 W/qm 0,0 nein 23:55
Gesamt: 4,9 °C 6,9 °C 7,1 °C 90 % 996,7 hPa 0,2 mm 13,9 mm 3,8 km/h 9,5 km/h 0 66,1 W/qm 0,2 ja

Insgesamt 288 Zeilen mal 13 Spalten = 3744 Werte werden angezeigt.

www.wetter-rosstal.de   •   www.wetter-franken.de   •   www.lightningmaps.org   •   Start   •   Kontakt / Datenschutz   •   PC-Kümmerer